Regional Weather Roundup
Issued by NWS Albany, NY

Home | Current Version | Previous Version | Text Only | Print | Product List | Glossary On
Versions: 1 2 3 4 5 6 7 8 9 10 11 12 13 14 15 16 17 18 19 20 21 22 23 24 25 26 27 28 29 30 31 32 33 34 35 36 37 38 39 40 41 42 43 44 45 46 47 48 49 50
000
ASUS41 KALY 181410
RWRALY

NEW YORK STATE HOURLY WEATHER ROUNDUP
NATIONAL WEATHER SERVICE ALBANY NY
900 AM EST MON DEC 18 2017

NOTE: "FAIR" INDICATES FEW OR NO CLOUDS BELOW 12,000 FEET WITH NO
SIGNIFICANT WEATHER AND/OR NO OBSTRUCTIONS TO VISIBILITY.

NYZ032-033-038>043-046>054-057>066-NYZ062>081-082-084-181500-
EAST


CITY           SKY/WX    TMP DP  RH WIND       PRES   REMARKS
ALBANY         FLURRIES  24  15  68 CALM      30.09F
GLENS FALLS    CLOUDY    16  13  88 CALM      30.09F
POUGHKEEPSIE   CLOUDY    30  21  69 CALM      30.12F
NEWBURGH       CLOUDY    28  23  80 CALM      30.11F
MONTGOMERY     CLOUDY    29  20  69 CALM      30.10F
WHITE PLAINS   CLOUDY    34  27  75 NE5       30.09F WCI  30
ISLIP          CLOUDY    34  28  79 NE3       30.10F
NEW YORK CITY  CLOUDY    37  31  78 NE8       30.11F WCI  31
CENTRAL PARK   CLOUDY    38  33  82 N5        30.13F WCI  34
$$

NYZ005>009-017-018-044>046-055-056-181500-
CENTRAL


CITY           SKY/WX    TMP DP  RH WIND       PRES   REMARKS
FULTON         MIX PCPN  28  24  85 SE3       29.99F
SYRACUSE       FLURRIES  25  22  88 E5        30.00S WCI  19
ROME           FLURRIES  24  20  84 SE9       30.04F WCI  14
ELMIRA         CLOUDY    31  26  82 E3        30.01S
BINGHAMTON     CLOUDY    32  28  85 SW9       29.99R FOG     WCI  24
MONTICELLO     FOG       28  26  92 SE3       30.04F VSB 1/2
$$

NYZ026>034-041>043-087-181500-
NORTH


CITY           SKY/WX    TMP DP  RH WIND       PRES   REMARKS
WATERTOWN      LGT SNOW  18  14  84 E5        29.98F FOG     WCI  11
FORT DRUM      NOT AVBL
OGDENSBURG     LGT SNOW  15  12  89 N5        30.01F WCI   7
MASSENA        LGT SNOW  13  11  92 E3        30.05R FOG
SARANAC LAKE   CLOUDY    15  11  83 S3        29.91F
PLATTSBURGH    CLOUDY    18  10  71 CALM      30.04F
$$

NYZ001>004-010>016-019>021-085-181500-
WEST


CITY           SKY/WX    TMP DP  RH WIND       PRES   REMARKS
NIAGARA FALLS  LGT RAIN  39  33  79 SW13      29.95R WCI  31
BUFFALO        LGT RAIN  37  34  89 SW14      29.95F FOG     WCI  28
DUNKIRK        CLOUDY    37  34  89 S14       29.97F WCI  28
JAMESTOWN      LGT RAIN  33  32  96 S7        29.97F FOG     WCI  27
WELLSVILLE     CLOUDY    36  32  85 SW10G17   29.97R FOG     WCI  28
ROCHESTER      CLOUDY    37  34  89 SW7       29.96F WCI  32
PENN YAN       CLOUDY    36  31  82 SW9       29.98F WCI  29
$$

             KEY
       WCI = WIND CHILL INDEX
       VSB = VISIBILITY
       HX  = HEAT INDEX
$$



USA.gov is the U.S. government's official web portal to all federal, state and local government web resources and services.